Location: Gwatt
(46.7204°N, 7.6223°E)
Time: 22:07:38
(UTC+00:00)

Vanguard 2 Rocket - Pass Details

Date: 31 January 2021
Orbit: 554 x 3326 km, 32.9° (Epoch: 25 February)

Event Time Altitude Azimuth Distance (km) Brightness Sun altitude
Rises 17:33:47 0° 271° (W) 6,032 12.9 -10.9°
Reaches altitude 10° 17:39:35 10° 258° (WSW) 4,462 12.0 -11.8°
Maximum altitude 17:47:04 20° 217° (SW) 2,908 10.1 -13.1°
Drops below altitude 10° 17:52:23 10° 172° (S) 3,020 9.6 -14.0°
Sets 17:55:22 0° 155° (SSE) 3,632 9.8 -14.5°
